User: anonymous   Login
Location: Palomar Mountain Lodge
(33.3110°N, 116.8495°W)
Time: 18:39:07
(UTC-08:00)
Language:

CZ-2C R/B - Orbit

View from above orbital plane
View from above orbital plane
View from above satellite
View from above satellite

Ground track
Ground track

The orbit data is extracted from the following two-line orbital elements,

1 31114U 07010B   19020.73153166 +.00000007 +00000-0 +22554-4 0  9991
2 31114 098.3330 261.0889 0059120 323.9896 035.7304 14.19287726610140
Epoch (UTC): 20 January 2019 17:33:24
Eccentricity: 0.0059120
inclination: 98.3330°
perigee height: 785 km
apogee height: 870 km
right ascension of ascending node: 261.0889°
argument of perigee: 323.9896°
revolutions per day: 14.19287726
mean anomaly at epoch: 35.7304°
orbit number at epoch: 61014

The dashed part of the orbit path shows where the satellite is in the earth's shadow,  

DLR